AAY972 KPIE-KEYW

Flight info

Callsign AAY972
Flight time N/A
Altitude 29000
Route SABEE KRAKN1
Aircraft A320/M-SDE3FGHIRWY/LB1

Departure

Time 2026-04-27 22:55
Airport St. Petersburg Clearwater International Airport (KPIE)

Arrival

Time N/A
Airport Key West International Airport (KEYW)
Time Latitude Longitude Altitude Speed Heading
2026-04-27 22:45 27.90756 -82.69207 24 ft 0 kts 178°
2026-04-27 22:45 27.90761 -82.69208 26 ft 4 kts 177°
2026-04-27 22:46 27.90786 -82.69210 27 ft 4 kts 167°
2026-04-27 22:46 27.90812 -82.69220 25 ft 4 kts 149°
2026-04-27 22:46 27.90830 -82.69238 24 ft 4 kts 108°
2026-04-27 22:46 27.90833 -82.69249 28 ft 0 kts 88°
2026-04-27 22:49 27.90834 -82.69214 25 ft 8 kts 88°
2026-04-27 22:49 27.90837 -82.69123 24 ft 15 kts 88°
2026-04-27 22:50 27.90838 -82.68990 24 ft 18 kts 103°
2026-04-27 22:50 27.90761 -82.68953 24 ft 16 kts 171°
2026-04-27 22:50 27.90728 -82.68948 24 ft 16 kts 171°
2026-04-27 22:50 27.90624 -82.68929 26 ft 14 kts 171°
2026-04-27 22:51 27.90530 -82.68912 24 ft 13 kts 171°
2026-04-27 22:51 27.90443 -82.68897 24 ft 12 kts 171°
2026-04-27 22:51 27.90362 -82.68882 24 ft 11 kts 171°
2026-04-27 22:51 27.90285 -82.68869 24 ft 13 kts 172°
2026-04-27 22:52 27.90177 -82.68855 23 ft 20 kts 178°
2026-04-27 22:52 27.90022 -82.68861 22 ft 24 kts 182°
2026-04-27 22:52 27.89853 -82.68853 24 ft 25 kts 172°
2026-04-27 22:52 27.89702 -82.68820 26 ft 17 kts 150°
2026-04-27 22:53 27.89694 -82.68746 25 ft 9 kts 79°
2026-04-27 22:53 27.89705 -82.68660 20 ft 14 kts 82°
2026-04-27 22:53 27.89707 -82.68647 21 ft 0 kts 82°
2026-04-27 22:54 27.89707 -82.68644 21 ft 2 kts 81°
2026-04-27 22:54 27.89764 -82.68622 19 ft 18 kts 351°
2026-04-27 22:54 27.90121 -82.68684 23 ft 97 kts 351°
2026-04-27 22:55 27.91073 -82.68839 103 ft 169 kts 352°
2026-04-27 22:55 27.92277 -82.69032 951 ft 182 kts 347°
2026-04-27 22:55 27.93563 -82.69068 1902 ft 193 kts 10°
2026-04-27 22:55 27.94437 -82.68550 2203 ft 213 kts 44°
2026-04-27 22:56 27.94852 -82.67961 2397 ft 225 kts 60°
2026-04-27 22:56 27.95123 -82.66150 2863 ft 250 kts 102°
2026-04-27 22:56 27.94295 -82.64366 3392 ft 268 kts 139°
2026-04-27 22:56 27.92718 -82.63202 4245 ft 274 kts 157°
2026-04-27 22:57 27.90942 -82.62383 5222 ft 278 kts 162°
2026-04-27 22:57 27.89133 -82.61653 6181 ft 282 kts 163°
2026-04-27 22:57 27.87278 -82.60877 7101 ft 287 kts 161°
2026-04-27 22:57 27.85408 -82.60027 7990 ft 292 kts 159°
2026-04-27 22:58 27.83874 -82.59280 8703 ft 298 kts 158°